{"data":{"norad_id":61208,"intl_designator":"2024-171J","name":"STARLINK-11291 [DTC]","alt_names":[],"object_type":"PAYLOAD","status":"ACTIVE","operator":null,"country":"US","launch_date":"2024-09-20","launch_site_code":"AFWTR","launch_vehicle":null,"mission":null,"orbit_class":"UNKNOWN","rcs_meters":null,"size_class":null,"mass_kg":null,"dimensions":null,"purposes":["comms"],"wikipedia_slug":null,"has_3d_model":false,"image_url":null,"decayed_at":null,"tle_current":{"epoch":"2026-09-21T08:29:48.159168Z","epoch_age_seconds":118321,"freshness":"FRESH","line1":"1 61208U 24171J   26264.35402962 -.00000826  00000+0 -19627-5 0  9990","line2":"2 61208  53.1595 291.4406 0000964  63.9895 296.1222 15.69705475115136","mean_motion":15.69705475,"eccentricity":9.64e-5,"inclination_deg":53.1595,"raan_deg":291.4406,"arg_perigee_deg":63.9895,"mean_anomaly_deg":296.1222,"bstar":-1.9627e-6,"rev_number":11513,"period_min":91.736954666607,"perigee_km":359.090167955,"apogee_km":360.38923058262,"semimajor_km":6737.8766992688,"source":"CELESTRAK","updated_at":"2026-09-22T09:00:49.340291Z"}}}